Tracking 25710 objects as of 5-Jul-2022
HD Live streaming from Space Station
objects crossing your sky now

FENGYUN 1C DEB

Track FENGYUN 1C DEB now!
10-day predictions


NORAD ID: 31745
Int'l Code: 1999-025CEU
Perigee: 604.5 km
Apogee: 1,286.7 km
Inclination: 96.8 °
Period: 103.8 minutes
Semi major axis: 7316 km
RCS: 0.0077 m2 (small)
Launch date: May 10, 1999
Source: People's Republic of China (PRC)
Launch site: Taiyaun Space Center, China (TSC)

Note: This is SATELLITE DEBRIS
aabbcc
Your satellite tracking list
Your tracking list is empty




NASA's NSSDC Master Catalog

Two Line Element Set (TLE):
1 31745U 99025CEU 22185.51210460  .00001098  00000-0  40322-3 0  9994
2 31745  96.7647 104.1364 0466210 190.0208 169.1410 13.87204086131768
Source of the keplerian elements: AFSPC